| time (UTC) | temp F | wind direction | speed MPH | gust MPH | rain 1hr in | rain 24hr in | rain mn in | humidity % | barometer mb |
| 20260502213108 | 64 | 188 | 2.0 | 10.0 | 0.00 | 0.00 | 0.00 | 85 | 1016.6 |
| 20260502211554 | 64 | 182 | 3.0 | 9.0 | 0.00 | 0.00 | 0.00 | 85 | 1016.6 |
| 20260502210052 | 64 | 200 | 3.0 | 8.0 | 0.00 | 0.00 | 0.00 | 85 | 1016.8 |
| 20260502204602 | 64 | 192 | 3.0 | 9.0 | 0.00 | 0.00 | 0.00 | 85 | 1016.5 |
| 20260502203058 | 64 | 217 | 4.0 | 9.0 | 0.00 | 0.00 | 0.00 | 84 | 1016.3 |
| 20260502201550 | 65 | 202 | 5.0 | 10.0 | 0.00 | 0.00 | 0.00 | 84 | 1016.4 |
| 20260502200115 | 65 | 204 | 5.0 | 11.0 | 0.00 | 0.00 | 0.00 | 84 | 1016.2 |
| 20260502194606 | 65 | 204 | 4.0 | 11.0 | 0.00 | 0.00 | 0.00 | 84 | 1016.1 |
| 20260502193057 | 65 | 190 | 6.0 | 10.0 | 0.00 | 0.00 | 0.00 | 84 | 1016.1 |
| 20260502191556 | 65 | 196 | 6.0 | 11.0 | 0.00 | 0.00 | 0.00 | 84 | 1016.2 |
| 20260502190054 | 66 | 201 | 5.0 | 11.0 | 0.00 | 0.00 | 0.00 | 84 | 1016.1 |
| 20260502184559 | 65 | 205 | 6.0 | 14.0 | 0.00 | 0.00 | 0.00 | 84 | 1015.9 |
| 20260502183052 | 66 | 200 | 5.0 | 10.0 | 0.00 | 0.00 | 0.00 | 84 | 1015.8 |
| 20260502181549 | 66 | 190 | 5.0 | 12.0 | 0.00 | 0.00 | 0.00 | 84 | 1015.9 |
| 20260502180114 | 66 | 258 | 6.0 | 13.0 | 0.00 | 0.00 | 0.00 | 84 | 1016.0 |
| 20260502163052 | 67 | 202 | 6.0 | 15.0 | 0.00 | 0.00 | 0.00 | 83 | 1016.7 |
| 20260502161553 | 67 | 223 | 5.0 | 13.0 | 0.00 | 0.00 | 0.00 | 83 | 1016.9 |
| 20260502151606 | 67 | 208 | 5.0 | 10.0 | 0.00 | 0.00 | 0.00 | 83 | 1017.5 |
| 20260502150125 | 67 | 211 | 6.0 | 12.0 | 0.00 | 0.00 | 0.00 | 83 | 1017.6 |
| 20260502130105 | 67 | 242 | 4.0 | 9.0 | 0.00 | 0.00 | 0.00 | 82 | 1018.8 |
| 20260502123051 | 68 | 210 | 5.0 | 10.0 | 0.00 | 0.00 | 0.00 | 83 | 1018.9 |
| 20260502121559 | 69 | 210 | 5.0 | 12.0 | 0.00 | 0.00 | 0.00 | 80 | 1018.7 |
| 20260502120113 | 69 | 214 | 4.0 | 11.0 | 0.00 | 0.00 | 0.00 | 81 | 1019.2 |
| 20260502114612 | 68 | 225 | 4.0 | 10.0 | 0.00 | 0.00 | 0.00 | 83 | 1019.5 |
| 20260502113112 | 68 | 225 | 6.0 | 12.0 | 0.00 | 0.00 | 0.00 | 82 | 1019.4 |
| 20260502111555 | 68 | 198 | 5.0 | 11.0 | 0.00 | 0.00 | 0.00 | 82 | 1019.4 |
| 20260502110103 | 68 | 216 | 6.0 | 12.0 | 0.00 | 0.00 | 0.00 | 82 | 1019.6 |
| 20260502104553 | 69 | 183 | 4.0 | 14.0 | 0.00 | 0.00 | 0.00 | 82 | 1019.6 |
| 20260502103112 | 68 | 223 | 5.0 | 11.0 | 0.00 | 0.00 | 0.00 | 83 | 1019.9 |
| 20260502101606 | 68 | 227 | 4.0 | 10.0 | 0.00 | 0.00 | 0.00 | 82 | 1020.0 |
| 20260502070059 | 67 | 191 | 4.0 | 10.0 | 0.00 | 0.00 | 0.00 | 80 | 1020.1 |
| 20260502064558 | 66 | 218 | 5.0 | 12.0 | 0.00 | 0.00 | 0.00 | 81 | 1020.0 |
| 20260502063104 | 66 | 193 | 6.0 | 12.0 | 0.00 | 0.00 | 0.00 | 81 | 1020.1 |
| 20260502061559 | 66 | 205 | 2.0 | 11.0 | 0.00 | 0.00 | 0.00 | 82 | 1019.9 |
| 20260502060106 | 65 | 202 | 2.0 | 6.0 | 0.00 | 0.00 | 0.00 | 82 | 1020.0 |
| 20260502054615 | 65 | 0 | 2.0 | 7.0 | 0.00 | 0.00 | 0.00 | 82 | 1019.9 |
| 20260502053051 | 65 | 175 | 1.0 | 4.0 | 0.00 | 0.00 | 0.00 | 82 | 1019.8 |
| 20260502051551 | 65 | 145 | 0.0 | 6.0 | 0.00 | 0.00 | 0.00 | 82 | 1019.8 |
| 20260502050054 | 65 | 0 | 1.0 | 5.0 | 0.00 | 0.00 | 0.00 | 82 | 1019.9 |
| 20260502044552 | 65 | 163 | 1.0 | 4.0 | 0.00 | 0.00 | 0.00 | 82 | 1019.8 |
| 20260502043104 | 65 | 194 | 2.0 | 7.0 | 0.00 | 0.00 | 0.00 | 82 | 1019.9 |
| 20260502041556 | 65 | 193 | 3.0 | 7.0 | 0.00 | 0.00 | 0.00 | 82 | 1019.9 |
| 20260502040055 | 65 | 192 | 3.0 | 7.0 | 0.00 | 0.00 | 0.00 | 82 | 1019.9 |
| 20260502034600 | 65 | 202 | 3.0 | 10.0 | 0.00 | 0.00 | 0.00 | 82 | 1020.0 |
| 20260502033054 | 65 | 190 | 3.0 | 9.0 | 0.00 | 0.00 | 0.00 | 82 | 1019.9 |
| 20260502031555 | 65 | 182 | 5.0 | 10.0 | 0.00 | 0.00 | 0.00 | 82 | 1020.0 |
| 20260502030106 | 65 | 194 | 4.0 | 10.0 | 0.00 | 0.00 | 0.00 | 83 | 1020.0 |
| 20260502024556 | 65 | 197 | 4.0 | 9.0 | 0.00 | 0.00 | 0.00 | 83 | 1020.0 |
| 20260502023100 | 65 | 218 | 3.0 | 8.0 | 0.00 | 0.00 | 0.00 | 82 | 1020.1 |
| 20260502021555 | 65 | 197 | 5.0 | 10.0 | 0.00 | 0.00 | 0.00 | 82 | 1020.0 |
| 20260502020054 | 65 | 209 | 4.0 | 11.0 | 0.00 | 0.00 | 0.00 | 82 | 1020.3 |
| 20260502014551 | 65 | 211 | 5.0 | 11.0 | 0.00 | 0.00 | 0.00 | 82 | 1020.2 |
| 20260502013056 | 65 | 185 | 5.0 | 10.0 | 0.00 | 0.00 | 0.00 | 82 | 1020.4 |
| 20260502011549 | 65 | 195 | 5.0 | 13.0 | 0.00 | 0.00 | 0.00 | 82 | 1020.6 |
| 20260502010057 | 65 | 205 | 5.0 | 14.0 | 0.00 | 0.00 | 0.00 | 81 | 1020.6 |
| 20260502004552 | 65 | 211 | 6.0 | 13.0 | 0.00 | 0.00 | 0.00 | 81 | 1020.8 |
| 20260502003056 | 65 | 202 | 6.0 | 12.0 | 0.00 | 0.00 | 0.00 | 81 | 1020.9 |
| 20260502001549 | 65 | 200 | 4.0 | 9.0 | 0.00 | 0.00 | 0.00 | 82 | 1021.1 |
| 20260502000050 | 65 | 205 | 4.0 | 10.0 | 0.00 | 0.00 | 0.00 | 82 | 1021.4 |
| 20260501234553 | 65 | 242 | 4.0 | 11.0 | 0.00 | 0.00 | 0.00 | 82 | 1021.6 |
| 20260501233055 | 65 | 225 | 6.0 | 13.0 | 0.00 | 0.00 | 0.00 | 82 | 1021.6 |
| 20260501231555 | 65 | 242 | 6.0 | 13.0 | 0.00 | 0.00 | 0.00 | 83 | 1021.6 |
| 20260501230059 | 65 | 217 | 6.0 | 12.0 | 0.00 | 0.00 | 0.00 | 83 | 1021.5 |
| 20260501224556 | 65 | 222 | 5.0 | 12.0 | 0.00 | 0.00 | 0.00 | 83 | 1021.5 |
| 20260501223112 | 65 | 204 | 4.0 | 10.0 | 0.00 | 0.00 | 0.00 | 83 | 1021.6 |
| 20260501221601 | 65 | 219 | 4.0 | 11.0 | 0.00 | 0.00 | 0.00 | 84 | 1021.6 |
| 20260501220057 | 65 | 219 | 4.0 | 11.0 | 0.00 | 0.00 | 0.00 | 84 | 1021.6 |
| 20260501214557 | 65 | 223 | 4.0 | 8.0 | 0.00 | 0.00 | 0.00 | 84 | 1021.5 |